M I D A S
Marine Information and Data Acquisition System
Tripno 317 of the Zeeleeuw from 2002-04-11 06:35:16 to 2002-04-11 14:34:41
Back to CruiseResearch ActivitiesStationsMapUnderway DataData graphs

EquipmentUnitsComments
TimeDGPSUTC
LatitudeDGPSDM.mWGS84
LongitudeDGPSDM.mWGS84
SpeedMeteo Stationm/sRelative wind speed
DirectionMeteo StationdegRelative wind direction
TemperatureMeteo Stationdeg CelciusAir temperature
PressureMeteo StationPaAtmospheric pressure
HumidityMeteo Station%Relative humidity
Missing or incorrect values are displayed as -999
Metereological data collected by the RV Zeeleeuw from 2002-04-11 06:35:16 to 2002-04-11 14:34:41
Time Latitude Longitude Speed Direction Temperature Pressure Humidity
2002-04-11 06:36 51°13.692 2°55.835 2.3 248 5 101130 68
2002-04-11 06:37 51°13.695 2°55.77 4.4 248 5 101140 67
2002-04-11 06:38 51°13.703 2°55.764 3 159 5 101130 67
2002-04-11 06:39 51°13.703 2°55.746 4 147 5 101140 67
2002-04-11 06:40 51°13.757 2°55.701 2.2 141 5 101130 68
2002-04-11 06:41 51°13.836 2°55.628 4 189 5 101130 68
2002-04-11 06:42 51°13.932 2°55.552 4.8 153 5 101130 68
2002-04-11 06:43 51°14.031 2°55.479 3.4 158 5 101130 68
2002-04-11 06:44 51°14.131 2°55.408 3.9 185 5.1 101130 68
2002-04-11 06:45 51°14.253 2°55.276 4.4 157 5.1 101120 67
2002-04-11 06:46 51°14.35 2°55.082 5.3 150 5.1 101120 68
2002-04-11 06:47 51°14.483 2°54.909 6.8 178 5.3 101110 69
2002-04-11 06:48 51°14.653 2°54.727 7.4 179 5.3 101110 69
2002-04-11 06:49 51°14.825 2°54.552 7.3 179 5.5 101110 69
2002-04-11 06:50 51°15.005 2°54.367 8.6 180 5.5 101110 68
2002-04-11 06:51 51°15.171 2°54.182 9 174 5.6 101120 68
2002-04-11 06:52 51°15.348 2°53.982 9.9 165 5.7 101110 69
2002-04-11 06:53 51°15.523 2°53.784 9.9 177 5.8 101110 69
2002-04-11 06:54 51°15.703 2°53.577 9.5 171 5.9 101100 66
2002-04-11 06:55 51°15.881 2°53.368 9.3 175 5.9 101110 67
2002-04-11 06:56 51°16.063 2°53.167 11.6 178 6.1 101110 70
2002-04-11 06:57 51°16.244 2°52.995 7.9 183 6.1 101100 67
2002-04-11 06:58 51°16.43 2°52.809 13 171 6.3 101110 70
2002-04-11 06:59 51°16.614 2°52.653 11.4 172 6.4 101090 67
2002-04-11 07:00 51°16.806 2°52.519 13.1 171 6.4 101100 68
2002-04-11 07:01 51°16.996 2°52.41 10 174 6.4 101100 68
2002-04-11 07:02 51°17.19 2°52.297 9.3 182 6.6 101100 69
2002-04-11 07:03 51°17.39 2°52.259 12.3 191 6.6 101090 67
2002-04-11 07:04 51°17.589 2°52.247 13.6 187 6.6 101100 67
2002-04-11 07:05 51°17.792 2°52.233 11 185 6.6 101100 70
2002-04-11 07:06 51°17.989 2°52.219 12.7 189 6.6 101110 68
2002-04-11 07:07 51°18.171 2°52.317 17.9 219 6.6 101110 67
2002-04-11 07:08 51°18.272 2°52.584 17.3 220 6.6 101110 67
2002-04-11 07:09 51°18.378 2°52.84 15.9 221 6.7 101120 68
2002-04-11 07:10 51°18.483 2°53.103 16.9 224 6.8 101120 68
2002-04-11 07:11 51°18.588 2°53.367 15.4 224 6.8 101110 68
2002-04-11 07:12 51°18.694 2°53.632 15.7 316 6.8 101120 68
2002-04-11 07:13 51°18.759 2°53.93 17.9 237 6.8 101140 67
2002-04-11 07:14 51°18.814 2°54.235 17.9 233 6.8 101130 67
2002-04-11 07:15 51°18.876 2°54.536 17.2 233 6.7 101130 67
2002-04-11 07:16 51°18.94 2°54.844 17.8 230 6.7 101130 69
2002-04-11 07:17 51°19.001 2°55.148 18.3 233 6.8 101130 69
2002-04-11 07:18 51°19.062 2°55.445 17.6 229 6.7 101140 68
2002-04-11 07:19 51°19.126 2°55.753 17.9 231 6.7 101140 67
2002-04-11 07:20 51°19.188 2°56.05 16.7 227 6.7 101130 67
2002-04-11 07:21 51°19.252 2°56.35 16.6 233 6.7 101120 66
2002-04-11 07:22 51°19.318 2°56.656 17.9 230 6.8 101130 66
2002-04-11 07:23 51°19.382 2°56.952 16.9 228 6.8 101130 69
2002-04-11 07:24 51°19.449 2°57.258 17.1 228 6.8 101130 68
2002-04-11 07:25 51°19.515 2°57.559 15.7 228 6.7 101140 66
2002-04-11 07:26 51°19.58 2°57.862 16.7 232 6.8 101130 67
2002-04-11 07:27 51°19.647 2°58.163 16.6 227 6.8 101140 67
2002-04-11 07:28 51°19.713 2°58.465 15.4 236 6.8 101120 69
2002-04-11 07:29 51°19.779 2°58.762 18 234 6.9 101120 68
2002-04-11 07:30 51°19.847 2°59.06 16.4 229 6.8 101110 67
2002-04-11 07:31 51°19.914 2°59.364 16.7 227 6.8 101130 67
2002-04-11 07:32 51°19.982 2°59.656 15.4 227 6.8 101130 66
2002-04-11 07:33 51°20.052 2°59.959 16.1 230 6.8 101130 67
2002-04-11 07:34 51°20.118 3°0.258 17 231 6.8 101130 69
2002-04-11 07:35 51°20.186 3°0.551 17.8 230 6.8 101120 67
2002-04-11 07:36 51°20.252 3°0.853 16.8 231 6.8 101120 67
2002-04-11 07:37 51°20.326 3°1.141 16.6 227 6.8 101120 67
2002-04-11 07:38 51°20.405 3°1.44 16.3 225 6.8 101110 68
2002-04-11 07:39 51°20.48 3°1.732 18.1 224 6.8 101110 67
2002-04-11 07:40 51°20.559 3°2.02 16.2 227 6.8 101120 70
2002-04-11 07:41 51°20.638 3°2.312 16.9 225 6.8 101120 68
2002-04-11 07:42 51°20.716 3°2.604 17.1 228 6.8 101110 68
2002-04-11 07:43 51°20.795 3°2.889 16.7 229 6.8 101120 69
2002-04-11 07:44 51°20.873 3°3.18 17.4 224 6.8 101110 69
2002-04-11 07:45 51°20.954 3°3.473 15.1 231 6.9 101100 69
2002-04-11 07:46 51°21.034 3°3.764 16.9 224 6.9 101110 68
2002-04-11 07:47 51°21.115 3°4.055 15.6 228 6.9 101110 69
2002-04-11 07:48 51°21.197 3°4.345 17.3 226 6.9 101120 68
2002-04-11 07:49 51°21.277 3°4.638 15.6 226 6.9 101110 69
2002-04-11 07:50 51°21.358 3°4.925 17.7 231 7 101110 68
2002-04-11 07:51 51°21.439 3°5.224 16 226 7 101110 69
2002-04-11 07:52 51°21.52 3°5.517 16.2 227 6.9 101110 67
2002-04-11 07:53 51°21.601 3°5.811 14.6 229 6.9 101110 68
2002-04-11 07:54 51°21.683 3°6.104 17.2 229 6.9 101110 67
2002-04-11 07:55 51°21.764 3°6.398 16.8 230 6.9 101120 67
2002-04-11 07:56 51°21.85 3°6.69 16.9 227 6.9 101120 65
2002-04-11 07:57 51°21.934 3°6.978 16.6 227 6.9 101130 67
2002-04-11 07:58 51°22.02 3°7.281 15.9 223 6.9 101120 67
2002-04-11 07:59 51°22.107 3°7.577 17.1 230 6.9 101130 66
2002-04-11 08:00 51°22.193 3°7.868 15.9 223 6.9 101130 66
2002-04-11 08:01 51°22.278 3°8.156 15.5 229 6.9 101120 66
2002-04-11 08:02 51°22.369 3°8.454 14.7 223 6.9 101130 69
2002-04-11 08:03 51°22.457 3°8.749 18 228 6.9 101120 66
2002-04-11 08:04 51°22.544 3°9.044 17.4 225 6.9 101120 65
2002-04-11 08:05 51°22.621 3°9.311 12 224 6.9 101120 67
2002-04-11 08:06 51°22.648 3°9.438 11.1 225 6.9 101120 68
2002-04-11 08:07 51°22.658 3°9.5 9.3 209 6.9 101130 65
2002-04-11 08:08 51°22.684 3°9.503 9.7 164 6.8 101100 64
2002-04-11 08:09 51°22.695 3°9.474 7 141 6.8 101110 67
2002-04-11 08:10 51°22.699 3°9.447 8.6 169 6.9 101100 66
2002-04-11 08:11 51°22.698 3°9.421 6.7 183 6.8 101110 67
2002-04-11 08:12 51°22.702 3°9.397 6.9 184 6.8 101110 68
2002-04-11 08:13 51°22.72 3°9.385 8.2 196 6.8 101110 67
2002-04-11 08:14 51°22.739 3°9.402 9.9 216 6.7 101120 66
2002-04-11 08:15 51°22.731 3°9.438 8.6 264 6.9 101110 67
2002-04-11 08:16 51°22.709 3°9.46 8.8 249 6.9 101110 68
2002-04-11 08:17 51°22.693 3°9.471 8.5 243 7 101110 66
2002-04-11 08:18 51°22.68 3°9.468 7.9 246 7.1 101120 69
2002-04-11 08:19 51°22.666 3°9.453 8.4 246 7.2 101110 65
2002-04-11 08:20 51°22.65 3°9.436 8.2 252 7.1 101120 66
2002-04-11 08:21 51°22.635 3°9.428 8.8 236 7.1 101110 65
2002-04-11 08:22 51°22.624 3°9.429 7.5 214 7.1 101110 64
2002-04-11 08:23 51°22.625 3°9.426 6.8 188 7 101100 67
2002-04-11 08:24 51°22.637 3°9.413 7.6 183 7.1 101090 69
2002-04-11 08:25 51°22.648 3°9.407 10.7 212 7 101100 68
2002-04-11 08:26 51°22.655 3°9.408 8.6 215 6.9 101100 66
2002-04-11 08:27 51°22.655 3°9.418 9 236 7 101100 68
2002-04-11 08:28 51°22.647 3°9.436 8.3 248 7 101100 66
2002-04-11 08:29 51°22.635 3°9.451 8.9 234 7.2 101110 68
2002-04-11 08:30 51°22.631 3°9.46 8.8 206 7.2 101100 68
2002-04-11 08:31 51°22.635 3°9.458 6.8 189 7.1 101090 64
2002-04-11 08:32 51°22.645 3°9.448 7 183 7 101090 67
2002-04-11 08:33 51°22.658 3°9.439 7 191 7.1 101090 68
2002-04-11 08:34 51°22.67 3°9.433 8.3 199 7 101080 66
2002-04-11 08:35 51°22.678 3°9.43 7.1 203 6.9 101090 64
2002-04-11 08:36 51°22.687 3°9.429 9.4 213 7 101090 67
2002-04-11 08:37 51°22.692 3°9.429 8.8 209 7 101070 65
2002-04-11 08:38 51°22.694 3°9.428 7.9 224 7 101080 67
2002-04-11 08:39 51°22.692 3°9.427 7.6 229 7.1 101080 64
2002-04-11 08:40 51°22.686 3°9.428 7.6 237 7.1 101080 63
2002-04-11 08:41 51°22.677 3°9.429 8.7 242 7.2 101080 63
2002-04-11 08:42 51°22.664 3°9.431 7.2 245 7.2 101070 63
2002-04-11 08:43 51°22.654 3°9.432 8.4 214 7.3 101080 64
2002-04-11 08:44 51°22.738 3°9.402 9.9 174 7.3 101060 63
2002-04-11 08:45 51°22.887 3°9.16 7.8 176 7.2 101080 65
2002-04-11 08:46 51°23.048 3°8.917 8.6 175 7.2 101080 65
2002-04-11 08:47 51°23.206 3°8.671 8 157 7.2 101090 66
2002-04-11 08:48 51°23.338 3°8.381 8.6 169 7.2 101080 66
2002-04-11 08:49 51°23.49 3°8.117 9.3 167 7.2 101070 65
2002-04-11 08:50 51°23.652 3°7.875 8 177 7.3 101100 67
2002-04-11 08:51 51°23.825 3°7.655 8.8 168 7.2 101070 66
2002-04-11 08:52 51°23.971 3°7.379 7.7 166 7.2 101070 65
2002-04-11 08:53 51°24.083 3°7.106 8 138 7.2 101080 66
2002-04-11 08:54 51°24.15 3°6.986 6.8 138 7.3 101070 66
2002-04-11 08:55 51°24.196 3°6.909 8 136 7.3 101090 65
2002-04-11 08:56 51°24.233 3°6.868 7.4 180 7.4 101080 68
2002-04-11 08:57 51°24.262 3°6.885 8.1 217 7.3 101070 64
2002-04-11 08:58 51°24.259 3°6.884 9.3 227 7.4 101070 65
2002-04-11 08:59 51°24.26 3°6.899 8.5 221 7.4 101080 64
2002-04-11 09:00 51°24.266 3°6.921 8.9 212 7.5 101070 67
2002-04-11 09:01 51°24.275 3°6.945 8.4 213 7.5 101070 66
2002-04-11 09:02 51°24.284 3°6.961 8.5 213 7.6 101070 66
2002-04-11 09:03 51°24.29 3°6.97 8.8 210 7.5 101070 65
2002-04-11 09:04 51°24.296 3°6.974 7.6 194 7.4 101060 64
2002-04-11 09:05 51°24.301 3°6.975 7.5 193 7.4 101060 68
2002-04-11 09:06 51°24.302 3°6.977 8 202 7.4 101060 66
2002-04-11 09:07 51°24.302 3°6.982 7.7 222 7.4 101070 68
2002-04-11 09:08 51°24.299 3°6.987 8.3 234 7.5 101070 66
2002-04-11 09:09 51°24.292 3°6.996 7.4 218 7.6 101060 66
2002-04-11 09:10 51°24.287 3°7.005 7.9 216 7.7 101070 65
2002-04-11 09:11 51°24.283 3°7.011 8.2 209 7.7 101060 66
2002-04-11 09:12 51°24.283 3°7.013 7.3 203 7.6 101050 66
2002-04-11 09:13 51°24.284 3°7.014 6.9 203 7.6 101060 66
2002-04-11 09:14 51°24.282 3°7.017 7.3 215 7.6 101060 69
2002-04-11 09:15 51°24.277 3°7.023 7.5 234 7.6 101060 65
2002-04-11 09:16 51°24.267 3°7.034 8.4 262 7.7 101060 66
2002-04-11 09:17 51°24.251 3°7.048 8.1 277 7.8 101050 67
2002-04-11 09:18 51°24.23 3°7.067 7.5 270 7.8 101050 67
2002-04-11 09:19 51°24.21 3°7.089 8.1 252 7.9 101050 64
2002-04-11 09:20 51°24.203 3°7.11 8.6 231 7.9 101060 63
2002-04-11 09:21 51°24.205 3°7.127 8.3 218 7.9 101050 66
2002-04-11 09:22 51°24.213 3°7.132 8 192 7.8 101050 64
2002-04-11 09:23 51°24.224 3°7.13 7.4 195 7.7 101060 64
2002-04-11 09:24 51°24.229 3°7.137 7.8 210 7.6 101050 66
2002-04-11 09:25 51°24.23 3°7.151 8 219 7.7 101040 65
2002-04-11 09:26 51°24.232 3°7.164 7.9 207 7.7 101050 64
2002-04-11 09:27 51°24.237 3°7.176 6.8 195 7.7 101050 64
2002-04-11 09:28 51°24.244 3°7.185 7.9 203 7.7 101060 67
2002-04-11 09:29 51°24.253 3°7.195 8.3 200 7.7 101050 64
2002-04-11 09:30 51°24.258 3°7.21 7.8 224 7.7 101060 65
2002-04-11 09:31 51°24.258 3°7.23 8.2 224 7.8 101060 65
2002-04-11 09:32 51°24.256 3°7.25 7.8 217 7.9 101050 64
2002-04-11 09:33 51°24.257 3°7.262 8.4 193 7.9 101060 62
2002-04-11 09:34 51°24.262 3°7.264 7.1 175 7.8 101050 63
2002-04-11 09:35 51°24.271 3°7.259 8.2 174 7.8 101050 66
2002-04-11 09:36 51°24.281 3°7.257 5.2 177 7.7 101050 64
2002-04-11 09:37 51°24.294 3°7.262 7.7 199 7.8 101050 67
2002-04-11 09:38 51°24.38 3°7.333 9.7 199 7.8 101040 66
2002-04-11 09:39 51°24.514 3°7.367 10.9 202 7.8 101040 66
2002-04-11 09:40 51°24.655 3°7.408 10.9 202 7.8 101040 65
2002-04-11 09:41 51°24.796 3°7.457 10.6 203 7.8 101030 65
2002-04-11 09:42 51°24.934 3°7.509 10.9 207 7.8 101040 66
2002-04-11 09:43 51°25.07 3°7.559 10.6 207 7.9 101040 68
2002-04-11 09:44 51°25.203 3°7.608 10.6 209 7.9 101050 69
2002-04-11 09:45 51°25.335 3°7.658 11 212 7.9 101050 69
2002-04-11 09:46 51°25.467 3°7.714 11.6 214 7.9 101040 69
2002-04-11 09:47 51°25.597 3°7.769 11.5 212 7.9 101030 69
2002-04-11 09:48 51°25.726 3°7.82 11.5 214 7.9 101030 69
2002-04-11 09:49 51°25.857 3°7.874 12.1 215 7.8 101040 67
2002-04-11 09:50 51°25.99 3°7.926 12.9 208 7.8 101030 68
2002-04-11 09:51 51°26.122 3°7.981 13.4 207 7.9 101030 69
2002-04-11 09:52 51°26.252 3°8.037 11.2 210 7.9 101030 69
2002-04-11 09:53 51°26.383 3°8.093 12 211 7.9 101030 69
2002-04-11 09:54 51°26.516 3°8.149 12.1 209 7.9 101030 67
2002-04-11 09:55 51°26.649 3°8.206 11.7 204 7.9 101020 66
2002-04-11 09:56 51°26.783 3°8.264 12.1 211 7.9 101030 68
2002-04-11 09:57 51°26.915 3°8.319 13.2 207 7.9 101030 69
2002-04-11 09:58 51°27.048 3°8.375 12.9 207 7.9 101030 67
2002-04-11 09:59 51°27.175 3°8.441 13.4 214 7.9 101030 67
2002-04-11 10:00 51°27.301 3°8.531 13.6 213 7.9 101040 67
2002-04-11 10:01 51°27.429 3°8.605 12.8 214 7.9 101030 67
2002-04-11 10:02 51°27.556 3°8.68 13.5 214 8 101030 67
2002-04-11 10:03 51°27.686 3°8.757 12 214 8 101020 68
2002-04-11 10:04 51°27.812 3°8.832 13.6 211 8 101020 66
2002-04-11 10:05 51°27.909 3°8.889 10.9 205 8 101030 65
2002-04-11 10:06 51°27.959 3°8.913 9.1 204 7.9 101020 67
2002-04-11 10:07 51°27.99 3°8.945 9.8 222 7.9 101030 66
2002-04-11 10:08 51°28.008 3°8.985 11.1 217 8 101030 64
2002-04-11 10:09 51°28.006 3°9 9 211 8 101020 62
2002-04-11 10:10 51°27.992 3°8.997 7 181 8 101020 66
2002-04-11 10:11 51°27.977 3°8.982 8.3 162 8 101020 64
2002-04-11 10:12 51°28 3°8.973 8.8 202 8 101010 67
2002-04-11 10:13 51°28.013 3°8.994 9.9 219 8.1 101020 67
2002-04-11 10:14 51°28.012 3°9.018 9 230 8.1 101030 64
2002-04-11 10:15 51°28.007 3°9.042 8.4 232 8.2 101020 66
2002-04-11 10:16 51°27.999 3°9.058 8.8 215 8.3 101020 67
2002-04-11 10:17 51°27.991 3°9.058 7.5 173 8.2 101010 65
2002-04-11 10:18 51°27.98 3°9.043 9.3 158 8.1 101000 67
2002-04-11 10:19 51°27.975 3°9.026 8.8 167 8.1 100990 66
2002-04-11 10:20 51°27.974 3°9.012 8.2 178 8 100990 65
2002-04-11 10:21 51°27.979 3°9.008 8.1 201 8 100990 67
2002-04-11 10:22 51°27.992 3°9.012 9.7 206 8 100980 66
2002-04-11 10:23 51°28.007 3°9.015 9.2 191 8 100980 66
2002-04-11 10:24 51°28.021 3°9.016 8.6 192 8 100980 67
2002-04-11 10:25 51°28.034 3°9.015 9.5 198 8 100980 68
2002-04-11 10:26 51°28.043 3°9.009 6.5 189 8 100970 70
2002-04-11 10:27 51°28.05 3°9.001 7 179 8.2 100980 72
2002-04-11 10:28 51°28.052 3°8.994 7.6 178 8.1 100980 71
2002-04-11 10:29 51°28.05 3°8.985 7 171 8 100980 72
2002-04-11 10:30 51°28.043 3°8.978 6.1 179 8.1 100980 72
2002-04-11 10:31 51°28.029 3°8.972 7.4 163 8.1 100970 73
2002-04-11 10:32 51°28.012 3°8.967 7.9 157 8.1 100970 72
2002-04-11 10:33 51°27.996 3°8.96 7.6 158 8.1 100970 71
2002-04-11 10:34 51°27.99 3°8.949 8.1 179 8 100970 71
2002-04-11 10:35 51°27.994 3°8.948 7.9 208 7.9 100960 70
2002-04-11 10:36 51°28.004 3°8.959 8.7 212 8 100970 72
2002-04-11 10:37 51°28.018 3°8.98 9.1 216 8 100980 72
2002-04-11 10:38 51°28.033 3°9.004 8.4 220 8 100980 70
2002-04-11 10:39 51°28.044 3°9.027 8.7 211 8.1 100970 70
2002-04-11 10:40 51°28.053 3°9.043 8.4 203 8.1 100970 70
2002-04-11 10:41 51°28.062 3°9.059 8.7 220 8 100970 71
2002-04-11 10:42 51°28.066 3°9.083 8.1 236 8.1 100980 71
2002-04-11 10:43 51°28.065 3°9.119 9.2 257 8.2 100980 72
2002-04-11 10:44 51°28.058 3°9.165 9 261 8.1 100970 70
2002-04-11 10:45 51°28.05 3°9.213 9.6 247 8.2 100970 71
2002-04-11 10:46 51°28.041 3°9.259 9.6 277 8.2 100960 70
2002-04-11 10:47 51°28.019 3°9.309 6.5 297 8.3 100980 70
2002-04-11 10:48 51°27.984 3°9.351 0.9 329 8.3 100980 71
2002-04-11 10:49 51°27.94 3°9.378 7.6 18 8.3 100980 72
2002-04-11 10:50 51°27.894 3°9.383 7 42 8.2 100970 73
2002-04-11 10:51 51°27.862 3°9.276 7.5 152 8.3 100970 72
2002-04-11 10:52 51°27.907 3°8.993 9.2 164 8.2 100960 72
2002-04-11 10:53 51°27.957 3°8.67 11 164 8.1 100970 72
2002-04-11 10:54 51°28.008 3°8.345 9.8 165 8.1 100970 72
2002-04-11 10:55 51°28.059 3°8.022 11.2 163 8 100960 71
2002-04-11 10:56 51°28.113 3°7.7 8 169 8 100970 71
2002-04-11 10:57 51°28.165 3°7.377 8.3 167 8 100970 71
2002-04-11 10:58 51°28.22 3°7.051 8.5 165 8 100960 70
2002-04-11 10:59 51°28.275 3°6.726 9.2 162 8 100960 70
2002-04-11 11:00 51°28.33 3°6.401 7.6 167 8 100960 71
2002-04-11 11:01 51°28.387 3°6.076 10 159 8.1 100970 71
2002-04-11 11:02 51°28.442 3°5.752 9.6 163 8.1 100970 71
2002-04-11 11:03 51°28.49 3°5.425 8.7 167 8.1 100960 70
2002-04-11 11:04 51°28.541 3°5.1 8.5 153 8.1 100970 71
2002-04-11 11:05 51°28.592 3°4.773 10.3 167 8.2 100960 71
2002-04-11 11:06 51°28.625 3°4.44 8.6 158 8.1 100960 71
2002-04-11 11:07 51°28.661 3°4.108 8.3 161 8.1 100960 71
2002-04-11 11:08 51°28.671 3°3.879 7.1 149 8.2 100970 72
2002-04-11 11:09 51°28.705 3°3.768 8.8 145 8.2 100950 72
2002-04-11 11:10 51°28.726 3°3.706 9.2 141 8.1 100960 70
2002-04-11 11:11 51°28.733 3°3.695 9.7 150 8.2 100960 69
2002-04-11 11:12 51°28.737 3°3.694 8.2 133 8.2 100960 70
2002-04-11 11:13 51°28.739 3°3.697 9.2 143 8.2 100960 71
2002-04-11 11:14 51°28.737 3°3.702 9 142 8.2 100960 71
2002-04-11 11:15 51°28.734 3°3.71 8 133 8.3 100950 70
2002-04-11 11:16 51°28.731 3°3.718 7.8 134 8.3 100950 71
2002-04-11 11:17 51°28.73 3°3.719 8.6 129 8.3 100950 70
2002-04-11 11:18 51°28.731 3°3.712 9 120 8.3 100940 69
2002-04-11 11:19 51°28.732 3°3.7 9.3 102 8.4 100950 72
2002-04-11 11:20 51°28.731 3°3.687 8.4 102 8.4 100950 69
2002-04-11 11:21 51°28.727 3°3.673 7.1 97 8.4 100950 72
2002-04-11 11:22 51°28.719 3°3.658 7.7 79 8.4 100940 69
2002-04-11 11:23 51°28.705 3°3.646 8.1 60 8.3 100950 71
2002-04-11 11:24 51°28.683 3°3.647 8.7 26 8.4 100960 72
2002-04-11 11:25 51°28.661 3°3.664 9 6 8.4 100960 71
2002-04-11 11:26 51°28.643 3°3.69 3.8 344 8.4 100950 71
2002-04-11 11:27 51°28.637 3°3.713 1.8 325 8.5 100950 73
2002-04-11 11:28 51°28.631 3°3.738 4.5 324 8.5 100960 72
2002-04-11 11:29 51°28.626 3°3.765 6.2 316 8.5 100960 71
2002-04-11 11:30 51°28.622 3°3.795 7.5 307 8.5 100950 73
2002-04-11 11:31 51°28.617 3°3.824 10.2 299 8.6 100950 72
2002-04-11 11:32 51°28.612 3°3.853 9.7 295 8.6 100950 72
2002-04-11 11:33 51°28.607 3°3.886 8.2 300 8.6 100950 72
2002-04-11 11:34 51°28.602 3°3.926 9.6 285 8.7 100950 71
2002-04-11 11:35 51°28.611 3°3.998 11.5 238 8.7 100920 70
2002-04-11 11:36 51°28.633 3°4.045 8.7 207 8.7 100930 71
2002-04-11 11:37 51°28.636 3°4.065 9.5 175 8.6 100910 69
2002-04-11 11:38 51°28.636 3°4.082 9.5 144 8.5 100910 69
2002-04-11 11:39 51°28.637 3°4.096 7.7 123 8.5 100910 71
2002-04-11 11:40 51°28.636 3°3.97 7 126 8.5 100920 71
2002-04-11 11:41 51°28.655 3°3.766 7.2 133 8.5 100910 71
2002-04-11 11:42 51°28.677 3°3.641 8.9 150 8.5 100920 72
2002-04-11 11:43 51°28.7 3°3.617 8.7 166 8.5 100920 70
2002-04-11 11:44 51°28.71 3°3.626 8.9 173 8.4 100910 71
2002-04-11 11:45 51°28.723 3°3.638 8.5 175 8.4 100910 70
2002-04-11 11:46 51°28.737 3°3.651 7.5 177 8.4 100910 72
2002-04-11 11:47 51°28.748 3°3.666 8.6 190 8.4 100900 72
2002-04-11 11:48 51°28.756 3°3.678 9.2 173 8.4 100900 72
2002-04-11 11:49 51°28.765 3°3.687 8.5 164 8.4 100900 74
2002-04-11 11:50 51°28.775 3°3.696 9 176 8.4 100910 74
2002-04-11 11:51 51°28.788 3°3.705 8.9 170 8.4 100900 74
2002-04-11 11:52 51°28.798 3°3.715 9.8 170 8.4 100900 73
2002-04-11 11:53 51°28.806 3°3.726 10.6 173 8.4 100900 75
2002-04-11 11:54 51°28.815 3°3.736 9.6 166 8.4 100900 73
2002-04-11 11:55 51°28.827 3°3.747 8.7 181 8.4 100900 74
2002-04-11 11:56 51°28.87 3°3.693 8.1 120 8.4 100880 73
2002-04-11 11:57 51°28.758 3°3.531 4 8 8.4 100920 73
2002-04-11 11:58 51°28.559 3°3.43 2.3 339 8.5 100910 72
2002-04-11 11:59 51°28.367 3°3.308 4.1 18 8.6 100910 73
2002-04-11 12:00 51°28.173 3°3.185 4.2 19 8.6 100910 73
2002-04-11 12:01 51°27.981 3°3.065 3.8 29 8.6 100900 71
2002-04-11 12:02 51°27.79 3°2.949 3.4 14 8.7 100900 72
2002-04-11 12:03 51°27.596 3°2.832 4.5 31 8.6 100900 72
2002-04-11 12:04 51°27.408 3°2.715 2.2 38 8.7 100900 73
2002-04-11 12:05 51°27.22 3°2.603 2.1 32 8.8 100900 73
2002-04-11 12:06 51°27.033 3°2.477 2.6 29 8.9 100890 74
2002-04-11 12:07 51°26.843 3°2.352 3.6 39 8.9 100900 73
2002-04-11 12:08 51°26.655 3°2.218 3.2 40 8.8 100900 71
2002-04-11 12:09 51°26.469 3°2.089 3 29 8.8 100890 72
2002-04-11 12:10 51°26.283 3°1.969 4.2 18 8.8 100890 72
2002-04-11 12:11 51°26.094 3°1.851 2.8 353 8.8 100890 72
2002-04-11 12:12 51°25.902 3°1.733 2.5 20 8.9 100890 74
2002-04-11 12:13 51°25.712 3°1.618 3.1 30 8.9 100890 72
2002-04-11 12:14 51°25.52 3°1.501 2.8 24 8.8 100880 72
2002-04-11 12:15 51°25.328 3°1.374 2.3 15 8.8 100880 73
2002-04-11 12:16 51°25.133 3°1.253 2.7 29 8.9 100880 73
2002-04-11 12:17 51°24.934 3°1.127 1.8 55 8.9 100880 74
2002-04-11 12:18 51°24.743 3°0.987 2.9 9 9 100880 73
2002-04-11 12:19 51°24.545 3°0.868 2.5 360 9 100870 72
2002-04-11 12:20 51°24.351 3°0.744 2.3 14 9 100870 73
2002-04-11 12:21 51°24.16 3°0.627 1.5 14 9.1 100870 74
2002-04-11 12:22 51°23.974 3°0.507 3.4 16 9 100870 72
2002-04-11 12:23 51°23.783 3°0.39 2.8 28 9 100860 73
2002-04-11 12:24 51°23.598 3°0.257 2.6 37 9 100860 73
2002-04-11 12:25 51°23.419 3°0.124 5.6 24 9 100860 73
2002-04-11 12:26 51°23.318 3°0.097 7.3 41 9 100870 73
2002-04-11 12:27 51°23.277 3°0.039 7.1 84 9 100860 73
2002-04-11 12:28 51°23.248 3°0.008 8.3 66 8.9 100850 73
2002-04-11 12:29 51°23.244 3°0.006 8.7 92 8.8 100840 75
2002-04-11 12:30 51°23.245 2°59.997 9.8 97 8.7 100840 75
2002-04-11 12:31 51°23.246 2°59.987 10.1 94 8.7 100840 74
2002-04-11 12:32 51°23.249 2°59.976 9.6 101 8.7 100830 74
2002-04-11 12:33 51°23.254 2°59.97 7.8 104 8.7 100820 75
2002-04-11 12:34 51°23.262 2°59.97 8.8 118 8.8 100830 75
2002-04-11 12:35 51°23.271 2°59.977 10.7 116 8.7 100820 74
2002-04-11 12:36 51°23.282 2°59.983 9 130 8.7 100830 73
2002-04-11 12:37 51°23.295 2°59.99 8.6 124 8.8 100830 75
2002-04-11 12:38 51°23.306 2°59.997 9.1 126 8.8 100830 76
2002-04-11 12:39 51°23.319 2°59.991 8.7 113 8.8 100820 75
2002-04-11 12:40 51°23.316 2°59.968 10.7 75 8.8 100830 76
2002-04-11 12:41 51°23.301 2°59.966 8 58 8.7 100840 75
2002-04-11 12:42 51°23.294 2°59.956 11.4 94 8.8 100820 74
2002-04-11 12:43 51°23.299 2°59.943 9.3 100 8.7 100810 75
2002-04-11 12:44 51°23.301 2°59.935 8.1 97 8.7 100820 74
2002-04-11 12:45 51°23.302 2°59.926 9.6 85 8.8 100820 75
2002-04-11 12:46 51°23.295 2°59.921 9 58 8.8 100830 75
2002-04-11 12:47 51°23.281 2°59.917 8.7 71 8.7 100830 75
2002-04-11 12:48 51°23.271 2°59.906 9.5 85 8.8 100830 76
2002-04-11 12:49 51°23.268 2°59.896 9.3 89 8.7 100820 75
2002-04-11 12:50 51°23.267 2°59.89 8 95 8.8 100820 75
2002-04-11 12:51 51°23.268 2°59.886 9.2 92 8.8 100810 75
2002-04-11 12:52 51°23.27 2°59.885 8.4 102 8.8 100810 75
2002-04-11 12:53 51°23.273 2°59.887 10.4 93 8.8 100810 76
2002-04-11 12:54 51°23.276 2°59.89 10.5 104 8.8 100810 75
2002-04-11 12:55 51°23.281 2°59.891 9 102 8.8 100810 74
2002-04-11 12:56 51°23.286 2°59.892 9.3 109 8.8 100810 75
2002-04-11 12:57 51°23.291 2°59.894 10.9 104 8.8 100800 74
2002-04-11 12:58 51°23.295 2°59.897 8.7 104 8.8 100800 73
2002-04-11 12:59 51°23.3 2°59.898 10 102 8.8 100800 72
2002-04-11 13:00 51°23.307 2°59.898 8.3 102 8.9 100800 74
2002-04-11 13:01 51°23.312 2°59.896 9.2 98 8.9 100800 74
2002-04-11 13:02 51°23.317 2°59.894 9.9 99 8.9 100800 75
2002-04-11 13:03 51°23.323 2°59.893 9.4 97 8.9 100800 74
2002-04-11 13:04 51°23.33 2°59.893 9.8 110 8.9 100800 74
2002-04-11 13:05 51°23.338 2°59.892 8 125 8.9 100800 73
2002-04-11 13:06 51°23.349 2°59.892 12 128 8.9 100790 73
2002-04-11 13:07 51°23.364 2°59.896 12.2 138 8.9 100800 73
2002-04-11 13:08 51°23.38 2°59.899 9.7 133 9 100790 73
2002-04-11 13:09 51°23.396 2°59.904 10.4 137 9 100790 75
2002-04-11 13:10 51°23.41 2°59.916 8.9 141 9 100790 75
2002-04-11 13:11 51°23.422 2°59.93 9.9 142 9.1 100780 76
2002-04-11 13:12 51°23.438 2°59.939 9.4 160 9 100780 76
2002-04-11 13:13 51°23.455 2°59.946 9.2 148 9 100780 75
2002-04-11 13:14 51°23.474 2°59.952 9.4 149 8.9 100790 75
2002-04-11 13:15 51°23.493 2°59.953 10.2 139 8.9 100780 74
2002-04-11 13:16 51°23.498 2°59.905 7.4 49 8.9 100780 74
2002-04-11 13:17 51°23.376 2°59.872 3.9 33 9 100800 74
2002-04-11 13:18 51°23.193 2°59.773 4.2 38 9.1 100800 74
2002-04-11 13:19 51°23.01 2°59.662 1.9 349 9.1 100800 73
2002-04-11 13:20 51°22.819 2°59.554 3.8 22 9.1 100800 74
2002-04-11 13:21 51°22.63 2°59.427 2.2 9 9.1 100790 73
2002-04-11 13:22 51°22.433 2°59.327 1.6 2 9.1 100790 73
2002-04-11 13:23 51°22.235 2°59.214 3.6 16 9.2 100790 73
2002-04-11 13:24 51°22.038 2°59.109 3.9 28 9.1 100790 72
2002-04-11 13:25 51°21.846 2°58.983 1.8 51 9.1 100780 73
2002-04-11 13:26 51°21.654 2°58.863 3.5 29 9.3 100780 73
2002-04-11 13:27 51°21.459 2°58.746 3.4 29 9.3 100770 73
2002-04-11 13:28 51°21.261 2°58.636 4.4 29 9.4 100780 72
2002-04-11 13:29 51°21.065 2°58.531 4.7 26 9.3 100770 73
2002-04-11 13:30 51°20.871 2°58.419 4 19 9.3 100770 72
2002-04-11 13:31 51°20.675 2°58.311 3.2 36 9.3 100770 74
2002-04-11 13:32 51°20.478 2°58.199 4.1 32 9.3 100770 74
2002-04-11 13:33 51°20.281 2°58.085 2.5 36 9.2 100760 73
2002-04-11 13:34 51°20.09 2°57.975 4.1 36 9.4 100760 73
2002-04-11 13:35 51°19.902 2°57.849 2.7 18 9.4 100760 72
2002-04-11 13:36 51°19.708 2°57.726 2.4 15 9.5 100760 73
2002-04-11 13:37 51°19.516 2°57.601 2.1 29 9.5 100770 74
2002-04-11 13:38 51°19.322 2°57.478 1.9 320 9.6 100760 73
2002-04-11 13:39 51°19.134 2°57.362 2.5 3 9.6 100760 74
2002-04-11 13:40 51°18.94 2°57.245 4 20 9.6 100760 73
2002-04-11 13:41 51°18.75 2°57.127 3 48 9.5 100760 73
2002-04-11 13:42 51°18.559 2°57.01 3.1 39 9.5 100760 72
2002-04-11 13:43 51°18.368 2°56.888 3.4 28 9.5 100760 73
2002-04-11 13:44 51°18.174 2°56.789 1.3 353 9.4 100760 73
2002-04-11 13:45 51°17.988 2°56.695 3.4 10 9.4 100760 74
2002-04-11 13:46 51°17.792 2°56.598 4.1 24 9.4 100760 73
2002-04-11 13:47 51°17.603 2°56.507 4.9 38 9.4 100750 74
2002-04-11 13:48 51°17.447 2°56.436 5.3 27 9.4 100750 73
2002-04-11 13:49 51°17.25 2°56.338 4.7 35 9.4 100740 72
2002-04-11 13:50 51°17.051 2°56.241 4.6 31 9.3 100750 73
2002-04-11 13:51 51°16.851 2°56.138 4.5 30 9.4 100740 73
2002-04-11 13:52 51°16.645 2°56.038 2.7 27 9.4 100740 73
2002-04-11 13:53 51°16.448 2°55.936 4.5 28 9.4 100740 71
2002-04-11 13:54 51°16.252 2°55.837 3.7 4 9.4 100730 73
2002-04-11 13:55 51°16.055 2°55.733 2.9 20 9.4 100730 74
2002-04-11 13:56 51°15.848 2°55.639 4.7 37 9.4 100720 72
2002-04-11 13:57 51°15.651 2°55.549 4.7 23 9.4 100720 73
2002-04-11 13:58 51°15.449 2°55.47 4.3 30 9.4 100720 73
2002-04-11 13:59 51°15.245 2°55.401 4.7 320 9.4 100720 74
2002-04-11 14:00 51°15.051 2°55.292 4.5 38 9.6 100720 73
2002-04-11 14:01 51°14.887 2°55.258 7.8 21 9.5 100710 72
2002-04-11 14:02 51°14.809 2°55.227 8.2 61 9.5 100710 75
2002-04-11 14:03 51°14.768 2°55.182 7.9 76 9.5 100700 72
2002-04-11 14:04 51°14.74 2°55.142 10.3 78 9.4 100690 74
2002-04-11 14:05 51°14.724 2°55.106 11.3 98 9.3 100680 74
2002-04-11 14:06 51°14.719 2°55.084 10.3 103 9.3 100680 75
2002-04-11 14:07 51°14.716 2°55.098 9.4 97 9.3 100670 75
2002-04-11 14:08 51°14.707 2°55.08 10.4 89 9.3 100670 74
2002-04-11 14:09 51°14.697 2°55.066 11.8 94 9.3 100670 76
2002-04-11 14:10 51°14.69 2°55.054 9.4 92 9.2 100670 76
2002-04-11 14:11 51°14.685 2°55.041 9 96 9.2 100670 76
2002-04-11 14:12 51°14.676 2°55.018 8.8 90 9.2 100680 76
2002-04-11 14:13 51°14.664 2°54.994 10.1 83 9.2 100680 76
2002-04-11 14:14 51°14.606 2°54.975 7.8 7 9.2 100710 76
2002-04-11 14:15 51°14.453 2°55.022 6.3 353 9.3 100700 76
2002-04-11 14:16 51°14.315 2°55.169 8.1 300 9.3 100700 76
2002-04-11 14:17 51°14.223 2°55.32 5.2 327 9.3 100700 75
2002-04-11 14:18 51°14.137 2°55.398 1.9 337 9.3 100700 75
2002-04-11 14:19 51°14.047 2°55.466 8 345 9.4 100700 75
2002-04-11 14:20 51°13.954 2°55.536 2.1 324 9.4 100700 75
2002-04-11 14:21 51°13.867 2°55.6 4.6 323 9.6 100680 74
2002-04-11 14:22 51°13.799 2°55.658 2 332 9.6 100690 73
2002-04-11 14:23 51°13.749 2°55.728 1.8 356 9.7 100680 72
2002-04-11 14:24 51°13.718 2°55.792 2.7 336 9.8 100680 72
2002-04-11 14:25 51°13.706 2°55.841 6.1 317 9.9 100670 72
2002-04-11 14:26 51°13.693 2°55.886 5.2 303 10 100700 70
2002-04-11 14:27 51°13.688 2°55.895 3.3 11 10 100690 68
2002-04-11 14:28 51°13.685 2°55.904 3.9 315 10.1 100690 68
2002-04-11 14:29 51°13.686 2°55.908 4.5 352 10.1 100690 68
2002-04-11 14:30 51°13.686 2°55.908 6.6 355 10.2 100690 68
2002-04-11 14:31 51°13.688 2°55.905 1.9 334 10.2 100690 68
2002-04-11 14:32 51°13.688 2°55.906 3.4 336 10.2 100700 68
2002-04-11 14:33 51°13.688 2°55.906 7.6 3 10.2 100690 68
2002-04-11 14:34 51°13.688 2°55.906 4.5 344 10.1 100670 69